This demonstration page uses our WeatherBlox Daily Observations layout. Learn more.

Left ArrowRight Arrow

38.83388, -104.82136

Hourly Observations for November 16, 2016

Temp ( °F °C ) Dew Point ( °F °C ) Humidity (%) Winds ( mph kmh ) Pressure ( in mb ) Visibility ( mi km ) Precip ( " mm )
10:35 am 10:35 Sunny 68 20 14 -10 12 12 SSE 13 20 29.32 993 10 16 N/A
10:50 am 10:50 Sunny 68 20 12 -11 11 11 SSE 18 30 29.29 992 10 16 N/A
10:58 am 10:58 Sunny 68 19.8 13 -10.8 12 12 SSE 21 33 29.29 992 10 16 N/A
11:08 am 11:08 Sunny 68 20 12 -11 11 11 SSW 13 20 29.29 992 10 16 N/A
11:13 am 11:13 Sunny 68 20 12 -11 11 11 SW 13 20 29.29 992 10 16 N/A
11:25 am 11:25 Sunny 68 20 12 -11 11 11 ESE 13 20 29.29 992 10 16 N/A
11:30 am 11:30 Sunny 68 20 12 -11 11 11 SE 16 26 29.26 991 10 16 N/A
11:42 am 11:42 Sunny 68 20 12 -11 11 11 SSE 20 31 29.26 991 10 16 N/A
11:58 am 11:58 Sunny 68 20.2 12 -11 11 11 SE 23 37 29.23 990 10 16 N/A
12:06 pm 12:06 Sunny 68 20 12 -11 11 11 SSE 22 35 29.26 991 10 16 N/A
12:27 pm 12:27 Mostly Sunny 68 20 12 -11 11 11 NE 12 19 29.26 991 10 16 N/A
12:51 pm 12:51 Sunny N/A N/A N/A SSE 18 30 N/A N/A N/A
12:58 pm 12:58 Sunny 69 20.7 13 -10.4 11 11 SE 14 22 29.21 989 10 16 N/A
1:02 pm 13:02 Sunny 70 21 14 -10 12 12 ESE 13 20 29.21 989 10 16 N/A
1:58 pm 13:58 Mostly Sunny 67 19.3 14 -10.2 13 13 SSE 24 39 29.23 990 10 16 N/A
2:41 pm 14:41 Mostly Sunny 66 19 14 -10 13 13 SSW 13 20 29.23 990 10 16 N/A
2:48 pm 14:48 Mostly Sunny 66 19 14 -10 13 13 S 13 20 29.23 990 10 16 N/A
2:58 pm 14:58 Mostly Sunny 65 18.5 14 -9.9 14 14 SSE 17 28 29.23 990 10 16 N/A
3:12 pm 15:12 Mostly Sunny 64 18 14 -10 14 14 ESE 16 26 29.26 991 10 16 N/A
3:27 pm 15:27 Mostly Sunny 64 18 14 -10 14 14 SSE 15 24 29.26 991 10 16 N/A
3:34 pm 15:34 Mostly Sunny 64 18 14 -10 14 14 SE 15 24 29.26 991 10 16 N/A
3:47 pm 15:47 Sunny 64 18 14 -10 14 14 SE 13 20 29.26 991 10 16 N/A
3:50 pm 15:50 Sunny 64 18 14 -10 14 14 S 12 19 29.26 991 10 16 N/A
3:58 pm 15:58 Sunny 63 17.3 14 -9.8 15 15 S 8 13 29.26 991 10 16 N/A
4:32 pm 16:32 Sunny 63 17 16 -9 16 16 SE 13 20 29.29 992 10 16 N/A
5:58 pm 17:58 Clear 59 15.2 15 -9.2 18 18 WNW 7 11 29.32 993 10 16 N/A
6:58 pm 18:58 Clear 60 15.5 15 -9.4 17 17 NNE 3 6 29.32 993 10 16 N/A
7:58 pm 19:58 Mostly Clear 58 14.3 14 -10.2 17 17 WSW 12 19 29.35 994 10 16 N/A
8:58 pm 20:58 Partly Cloudy 57 13.7 12 -11.1 17 17 SSE 10 17 29.35 994 10 16 N/A
9:58 pm 21:58 Mostly Clear 54 12.1 12 -11.1 19 19 NNW 7 11 29.15 987 10 16 N/A
10:58 pm 22:58 Clear 53 11.6 11 -11.4 19 19 W 3 6 29.14 987 10 16 N/A
11:58 pm 23:58 Clear 54 12.3 14 -10 20 20 SSE 10 17 29.13 987 10 16 N/A

Powered by AerisWeather